Weather History for KEWB - February, 2014

Change the Weather History Date:

Monday, February 3, 2014

  Actual Average Record
Temperature  
Mean Temperature 36 °F -  
Max Temperature 42 °F 39 °F 56 °F (1973)
Min Temperature 28 °F 25 °F 0 °F (1955)
Degree Days  
Heating Degree Days 29    
Moisture  
Dew Point 30 °F    
Average Humidity 86    
Maximum Humidity 96    
Minimum Humidity 65    
Precipitation  
Precipitation 0.36 in - - ()
Sea Level Pressure  
Sea Level Pressure 30.15 in    
Wind  
Wind Speed 6 mph (North)    
Max Wind Speed 14 mph    
Max Gust Speed 18 mph    
Visibility 5 miles    
Events Fog , Snow    
Averages and records for this station are not official NWS values.
T = Trace of Precipitation, MM = Missing Value Source: NWS Daily Summary

Daily Weather History Graph

Daily Weather History Graph

Search for Another Location

Airport or City:

Trip Planner

Search our weather history database for the weather conditions in past years. The results will help you decide how hot, cold, wet, or windy it might be!

Date:

Astronomy

Feb. 03, 2014 Rise Set
Actual Time 6:53 AM EST 5:02 PM EST
Civil Twilight 6:24 AM EST 5:31 PM EST
Nautical Twilight 5:51 AM EST 6:04 PM EST
Astronomical Twilight 5:18 AM EST 6:36 PM EST
Moon 8:50 AM EST (2/3) 9:53 PM EST (2/3)
Length of Visible Light 11h 06m
Length of Day
10h 08m
Waxing Crescent, 19% of the Moon is Illuminated
Feb 3
Waxing Crescent
Feb 6
First Quarter
Feb 14
Full
Feb 22
Last Quarter
Mar 1
New

Hourly Weather History & Observations

Time (EST) Temp. Windchill Dew Point Humidity Pressure Visibility Wind Dir Wind Speed Gust Speed Precip Events Conditions
12:53 AM 42.1 °F 39.2 °F 30.9 °F 65% 30.05 in 10.0 mi NW 4.6 mph - N/A   Mostly Cloudy
1:53 AM 41.0 °F 38.0 °F 30.9 °F 67% 30.07 in 10.0 mi NNW 4.6 mph - N/A   Overcast
2:53 AM 41.0 °F 37.1 °F 30.9 °F 67% 30.07 in 10.0 mi NNW 5.8 mph - N/A   Overcast
3:53 AM 39.9 °F 37.8 °F 30.9 °F 70% 30.09 in 10.0 mi North 3.5 mph - N/A   Overcast
4:53 AM 39.0 °F 36.8 °F 30.0 °F 70% 30.09 in 10.0 mi North 3.5 mph - N/A   Overcast
5:53 AM 39.0 °F 36.8 °F 30.0 °F 70% 30.12 in 10.0 mi North 3.5 mph - N/A   Overcast
6:53 AM 37.9 °F 32.7 °F 30.0 °F 73% 30.14 in 10.0 mi NNE 6.9 mph - N/A   Overcast
7:18 AM 37.0 °F 28.5 °F 30.0 °F 76% 30.15 in 8.0 mi NNE 13.8 mph 18.4 mph 0.00 in Snow Light Snow
7:20 AM 37.0 °F 29.8 °F 30.0 °F 76% 30.16 in 2.5 mi NNE 10.4 mph 18.4 mph 0.00 in Snow Light Snow
7:53 AM 34.0 °F 28.0 °F 30.9 °F 89% 30.15 in 2.0 mi NNE 6.9 mph - 0.01 in Snow Light Snow
8:07 AM 34.0 °F 31.0 °F 30.9 °F 89% 30.15 in 1.0 mi NNE 3.5 mph - 0.01 in Snow Light Snow
8:53 AM 33.1 °F 28.7 °F 30.9 °F 92% 30.15 in 1.0 mi NNE 4.6 mph - 0.02 in Snow Light Snow
9:53 AM 33.1 °F 26.9 °F 30.9 °F 92% 30.17 in 1.0 mi NNE 6.9 mph - 0.04 in Snow Light Snow
10:00 AM 33.1 °F 26.9 °F 30.9 °F 92% 30.16 in 0.5 mi NNE 6.9 mph - 0.01 in Fog , Snow Snow
10:53 AM 33.1 °F 28.7 °F 30.9 °F 92% 30.18 in 0.5 mi NNE 4.6 mph - 0.05 in Fog , Snow Snow
11:53 AM 33.1 °F 25.5 °F 30.9 °F 92% 30.16 in 0.5 mi NE 9.2 mph - 0.05 in Fog , Snow Snow
12:15 PM 33.1 °F 26.1 °F 30.9 °F 92% 30.13 in 0.5 mi NNE 8.1 mph - 0.01 in Fog , Snow Snow
12:53 PM 33.1 °F 26.9 °F 30.9 °F 92% 30.13 in 0.5 mi North 6.9 mph - 0.04 in Fog , Snow Snow
1:53 PM 33.1 °F 26.9 °F 30.9 °F 92% 30.11 in 0.8 mi NNE 6.9 mph - 0.05 in Snow Light Snow
2:53 PM 33.1 °F 26.1 °F 30.9 °F 92% 30.10 in 0.8 mi North 8.1 mph - 0.04 in Snow Light Snow
3:53 PM 33.1 °F 26.9 °F 30.9 °F 92% 30.12 in 0.8 mi NNE 6.9 mph - 0.03 in Snow Light Snow
4:41 PM 32.0 °F 24.2 °F 30.9 °F 96% 30.12 in 1.0 mi North 9.2 mph - 0.02 in Snow Light Snow
4:53 PM 32.0 °F 24.2 °F 30.0 °F 92% 30.13 in 1.2 mi NNE 9.2 mph - 0.03 in Snow Light Snow
5:19 PM 32.0 °F 25.6 °F 30.0 °F 92% 30.13 in 2.0 mi North 6.9 mph - 0.00 in Snow Light Snow
5:40 PM 32.0 °F 24.8 °F 30.0 °F 92% 30.14 in 4.0 mi NNE 8.1 mph - 0.00 in Snow Light Snow
5:53 PM 32.0 °F 24.8 °F 30.0 °F 92% 30.14 in 5.0 mi North 8.1 mph - 0.00 in Snow Light Snow
6:36 PM 32.0 °F 25.6 °F 30.0 °F 92% 30.15 in 4.0 mi NNE 6.9 mph - 0.00 in Snow Light Snow
6:53 PM 32.0 °F 24.8 °F 30.0 °F 92% 30.16 in 3.0 mi North 8.1 mph - 0.00 in Snow Light Snow
7:53 PM 30.9 °F 22.2 °F 28.9 °F 92% 30.18 in 10.0 mi North 10.4 mph - 0.00 in   Overcast
8:53 PM 30.9 °F 26.2 °F 28.9 °F 92% 30.21 in 10.0 mi North 4.6 mph - N/A   Overcast
9:53 PM 30.9 °F 25.2 °F 28.9 °F 92% 30.22 in 10.0 mi NNW 5.8 mph - N/A   Overcast
10:46 PM 30.9 °F 25.2 °F 28.0 °F 89% 30.24 in 10.0 mi North 5.8 mph - N/A   Overcast
10:53 PM 30.0 °F 25.2 °F 28.0 °F 92% 30.25 in 10.0 mi North 4.6 mph - N/A   Overcast
11:53 PM 28.9 °F 25.2 °F 26.1 °F 89% 30.27 in 10.0 mi NNW 3.5 mph - N/A   Mostly Cloudy